Showing default

COSMOS 2250, 22651

Orbit data source: Space-Track

COSMOS 2250, 22651 is a payload satellite owned by VKS (CIS) in LEO that was launched on Tue, 11 May 1993 UTC via a TSIKLON-3 launch vehicle from the Plesetsk Missile And Space Complex (PKMTR). Payload-class satellites include a variety of spacecraft equipped with specific instruments for various scientific and technological missions. These include communications satellites like Starlink; space stations such as the ISS; scientific satellites like the Hubble; Earth observation satellites from companies like Planet Labs, Umbra, and HawkEye 360; GPS; miniature CubeSats for education and research; and military/defense satellites.

Loading next visibility...
Identifier
22651, 1993-030F
Orbit
LEO
Country
Flag of CISCIS
Related business
Manufacturer
NPO PM
Mission
Defense Communications
Bus & Motor
STRELA-3, Unknown motor
Mass
225 kg wet, 225 kg dry
Launch date (UTC)
1993-05-11 (32 years ago)
Launch vehicle
TSIKLON-3
Launch site
Plesetsk Missile And Space Complex (PKMTR)
Object type
Payload
Rocket body
Debris
Shape & HBR
Cyl, 0.8 m
Radar Cross Section
1.257 m², Large (>1 m²)

Expand to show TLE details & history
Last TLE update: 22 hours ago

TLE from 22 hours ago
0 COSMOS 2250
1 22651U 93030F   25309.17095272  .00000007  00000-0 -19385-4 0  9991
2 22651  82.5799 104.3108 0010558  78.3315  96.1569 12.63096228497736
Epoch: 2025-11-05T04:06Z
TLE epoch observation values (Epoch: 2025-11-05T04:06:10.315Z)
Latitude
5.26788°
Longitude
177.43575°
Altitude
1,413.285 km
Speed
7.154 km/s
True Right ascension
18h 54m 30s
True Declination
5° 14' 21"
Sunlit
Object was in daylight at epoch
Visualization orbit readout
Latitude
Unknown
Longitude
Unknown
Altitude
Unknown
Speed
Unknown
Apparent Right ascension
Unknown
Apparent Declination
Unknown
Sunlit
N/A
Visualization observer readout
Local Sidereal Time
21:46:42
Azimuth
Unknown
Elevation
Unknown
Doppler factor
Unknown
Orbital elements
Apogee altitude
1,415.73 km
Perigee altitude
1,399.29 km
Semi-major axis
7,785.647 km
Eccentricity
0.00106
Inclination
82.5799°
RAAN
104.3108°
Arg. of periapsis
78.3315°
True anomaly
96.27717°
Mean anomaly
96.1569°
Eccentric anomaly
96.21704°
Mean motion
3.15937 °/min
Orbital period
113.95 mins
BSTAR
-0.000019385
Loading maneuver chart data...
Computing Atmospheric mass density...
Loading historical data...
Loading historical data...
Loading historical data...
Loading historical data...
Loading historical data...
Loading historical data...
Loading historical data...

Documentation

Showing up to 5 results
|